Plymouth, NH

6:40 AM EDT on October 01, 2016 (GMT -0400)
Plymouth

Weather History for K1P1 - February, 2013

Change the Weather History Date:

Tuesday, February 5, 2013

  Actual Average (KLCI) Record (KLCI)
Temperature  
Mean Temperature 14 °F -  
Max Temperature 24 °F 27 °F 57 °F (1991)
Min Temperature 5 °F 8 °F -12 °F (1985)
Degree Days  
Heating Degree Days 50    
Moisture  
Dew Point 1 °F    
Average Humidity 54    
Maximum Humidity 77    
Minimum Humidity 31    
Precipitation  
Precipitation 0.00 in - - ()
Sea Level Pressure  
Sea Level Pressure 29.93 in    
Wind  
Wind Speed 4 mph (WNW)    
Max Wind Speed 9 mph    
Max Gust Speed -    
Visibility 10 miles    
Events      
Averages and records for this station are not official NWS values.
T = Trace of Precipitation, MM = Missing Value Source: NWS Daily Summary

Daily Weather History Graph

Daily Weather History Graph

Search for Another Location

Airport or City:

Trip Planner

Search our weather history database for the weather conditions in past years. The results will help you decide how hot, cold, wet, or windy it might be!

Date:

Astronomy

Feb. 05, 2013 Rise Set
Actual Time 6:58 AM EST 5:03 PM EST
Civil Twilight 6:28 AM EST 5:33 PM EST
Nautical Twilight 5:54 AM EST 6:08 PM EST
Astronomical Twilight 5:21 AM EST 6:41 PM EST
Moon 2:41 AM EST (2/5) 12:14 PM EST (2/5)
Length of Visible Light 11h 05m
Length of Day
10h 04m
Waning Crescent, 27% of the Moon is Illuminated
Feb 5
Waning Crescent
Feb 10
New
Feb 17
First Quarter
Feb 25
Full
Mar 4
Last Quarter

Hourly Weather History & Observations

Time (EST) Temp. Windchill Dew Point Humidity Pressure Visibility Wind Dir Wind Speed Gust Speed Precip Events Conditions
12:15 AM 13.1 °F 7.1 °F -3.8 °F 47% 29.86 in 10.0 mi WNW 3.5 mph - N/A   Unknown
12:55 AM 12.9 °F 5.2 °F -2.9 °F 49% 29.87 in 10.0 mi West 4.6 mph - N/A   Unknown
1:15 AM 12.2 °F 2.9 °F -2.6 °F 52% 29.87 in 10.0 mi West 5.8 mph - N/A   Unknown
1:35 AM 11.8 °F 2.5 °F -2.6 °F 53% 29.88 in 10.0 mi West 5.8 mph - N/A   Unknown
1:55 AM 11.7 °F 2.3 °F -2.9 °F 52% 29.89 in 10.0 mi West 5.8 mph - N/A   Unknown
2:15 AM 11.1 °F 0.4 °F -2.7 °F 54% 29.89 in 10.0 mi West 6.9 mph - N/A   Unknown
2:35 AM 10.9 °F 1.4 °F -3.1 °F 53% 29.90 in 10.0 mi West 5.8 mph - N/A   Unknown
2:55 AM 10.4 °F 0.8 °F -3.5 °F 54% 29.90 in 10.0 mi West 5.8 mph - N/A   Unknown
3:15 AM 10.2 °F 0.6 °F -3.5 °F 54% 29.90 in 10.0 mi West 5.8 mph - N/A   Unknown
3:35 AM 9.1 °F 2.6 °F -3.1 °F 58% 29.89 in 10.0 mi NNW 3.5 mph - N/A   Unknown
4:15 AM 8.2 °F 1.6 °F -2.7 °F 61% 29.91 in 10.0 mi WNW 3.5 mph - N/A   Unknown
4:35 AM 7.7 °F -0.9 °F -3.3 °F 61% 29.92 in 10.0 mi NW 4.6 mph - N/A   Unknown
4:55 AM 7.3 °F - -4.0 °F 60% 29.92 in 10.0 mi Calm Calm - N/A   Unknown
5:15 AM 6.4 °F - -2.7 °F 66% 29.93 in 10.0 mi Calm Calm - N/A   Unknown
5:55 AM 5.9 °F - -3.3 °F 66% 29.93 in 10.0 mi Calm Calm - N/A   Unknown
6:15 AM 5.0 °F - -2.2 °F 72% 29.94 in 10.0 mi Calm Calm - N/A   Unknown
6:35 AM 5.9 °F -1.1 °F -3.1 °F 67% 29.94 in 10.0 mi WNW 3.5 mph - N/A   Unknown
6:55 AM 5.9 °F -1.1 °F -3.8 °F 64% 29.95 in 10.0 mi WNW 3.5 mph - N/A   Unknown
7:15 AM 5.9 °F -1.1 °F -3.6 °F 65% 29.96 in 10.0 mi WNW 3.5 mph - N/A   Unknown
7:35 AM 6.4 °F -3.9 °F -4.0 °F 62% 29.97 in 10.0 mi West 5.8 mph - N/A   Unknown
7:55 AM 7.3 °F -2.8 °F -4.4 °F 59% 29.97 in 10.0 mi WNW 5.8 mph - N/A   Unknown
8:15 AM 8.2 °F -1.8 °F -5.1 °F 55% 29.98 in 10.0 mi WNW 5.8 mph - N/A   Unknown
8:55 AM 9.9 °F 1.6 °F -6.0 °F 49% 29.99 in 10.0 mi WNW 4.6 mph - N/A   Unknown
9:15 AM 10.9 °F 0.2 °F -5.4 °F 48% 29.99 in 10.0 mi WNW 6.9 mph - N/A   Unknown
9:35 AM 12.0 °F 2.7 °F -4.7 °F 47% 30.00 in 10.0 mi WNW 5.8 mph - N/A   Unknown
9:55 AM 13.3 °F 2.0 °F -3.8 °F 47% 29.99 in 10.0 mi NW 8.1 mph - N/A   Unknown
10:15 AM 14.2 °F 3.1 °F -3.8 °F 45% 29.99 in 10.0 mi WNW 8.1 mph - N/A   Unknown
10:35 AM 15.6 °F 4.9 °F -2.0 °F 46% 30.00 in 10.0 mi West 8.1 mph - N/A   Unknown
10:55 AM 16.7 °F 7.2 °F -2.0 °F 44% 29.99 in 10.0 mi WNW 6.9 mph - N/A   Unknown
11:15 AM 17.6 °F 8.2 °F -2.2 °F 42% 29.99 in 10.0 mi WNW 6.9 mph - N/A   Unknown
11:55 AM 19.4 °F 9.5 °F -1.7 °F 40% 29.96 in 10.0 mi WNW 8.1 mph - N/A   Unknown
12:15 PM 20.7 °F 11.9 °F -1.1 °F 39% 29.95 in 10.0 mi West 6.9 mph - N/A   Unknown
12:35 PM 21.6 °F 11.3 °F -1.3 °F 37% 29.95 in 10.0 mi West 9.2 mph - N/A   Unknown
12:55 PM 21.9 °F 14.5 °F -1.5 °F 36% 29.94 in 10.0 mi West 5.8 mph - N/A   Unknown
1:15 PM 22.8 °F 13.6 °F -1.3 °F 35% 29.94 in 10.0 mi WNW 8.1 mph - N/A   Unknown
1:35 PM 23.2 °F 16.0 °F -1.3 °F 34% 29.93 in 10.0 mi West 5.8 mph - N/A   Unknown
2:15 PM 23.7 °F 17.8 °F -2.0 °F 33% 29.93 in 10.0 mi WNW 4.6 mph - N/A   Unknown
2:35 PM 24.4 °F 20.1 °F -1.1 °F 33% 29.93 in 10.0 mi WNW 3.5 mph - N/A   Unknown
2:55 PM 24.4 °F 18.6 °F -1.7 °F 32% 29.92 in 10.0 mi WNW 4.6 mph - N/A   Unknown
3:15 PM 24.8 °F 19.1 °F -1.8 °F 31% 29.91 in 10.0 mi NNW 4.6 mph - N/A   Unknown
3:35 PM 24.6 °F - -2.0 °F 31% 29.91 in 10.0 mi Calm Calm - N/A   Unknown
3:55 PM 24.8 °F - -1.3 °F 32% 29.92 in 10.0 mi Calm Calm - N/A   Unknown
4:15 PM 24.4 °F - -1.5 °F 32% 29.91 in 10.0 mi Calm Calm - N/A   Unknown
4:35 PM 23.9 °F - 0.3 °F 36% 29.90 in 10.0 mi Calm Calm - N/A   Unknown
4:55 PM 22.8 °F - 0.9 °F 39% 29.91 in 10.0 mi Calm Calm - N/A   Unknown
5:15 PM 21.7 °F - 6.3 °F 51% 29.92 in 10.0 mi Calm Calm - N/A   Unknown
5:35 PM 20.7 °F - 9.5 °F 62% 29.92 in 10.0 mi Calm Calm - N/A   Unknown
6:15 PM 19.0 °F - 7.7 °F 61% 29.90 in 10.0 mi Calm Calm - N/A   Unknown
6:35 PM 18.9 °F - 7.2 °F 60% 29.91 in 10.0 mi Calm Calm - N/A   Unknown
7:15 PM 18.3 °F - 9.5 °F 68% 29.91 in 10.0 mi Calm Calm - N/A   Unknown
7:35 PM 17.6 °F - 7.7 °F 65% 29.91 in 10.0 mi Calm Calm - N/A   Unknown
7:55 PM 16.7 °F - 9.9 °F 74% 29.92 in 10.0 mi Calm Calm - N/A   Unknown
8:15 PM 16.3 °F - 9.3 °F 74% 29.93 in 10.0 mi Calm Calm - N/A   Unknown
8:55 PM 15.6 °F - 9.5 °F 77% 29.93 in 10.0 mi Calm Calm - N/A   Unknown
9:15 PM 16.0 °F - 9.5 °F 76% 29.93 in 10.0 mi Calm Calm - N/A   Unknown
9:35 PM 16.2 °F - 9.5 °F 75% 29.93 in 10.0 mi Calm Calm - N/A   Unknown
10:15 PM 16.7 °F - 9.9 °F 74% 29.93 in 10.0 mi Calm Calm - N/A   Unknown
10:35 PM 17.1 °F - 10.4 °F 75% 29.92 in 10.0 mi Calm Calm - N/A   Unknown
10:55 PM 17.1 °F - 10.6 °F 76% 29.92 in 10.0 mi Calm Calm - N/A   Unknown
11:15 PM 16.7 °F - 9.7 °F 74% 29.92 in 10.0 mi Calm Calm - N/A   Unknown
11:35 PM 16.5 °F - 9.3 °F 73% 29.92 in 10.0 mi Calm Calm - N/A   Unknown
11:55 PM 16.7 °F - 10.6 °F 77% 29.92 in 10.0 mi Calm Calm - N/A   Unknown